Location: Campillo
(40.8621°N, 4.2488°W)
Time: 05:00:51
(UTC+00:00)

USA 306 - Pass Details

Date: 30 September 2021
Orbit: 564 x 573 km, 54.0° (Epoch: 24 September)

Event Time Altitude Azimuth Distance (km) Brightness Sun altitude
Rises 20:58:34 0° 302° (WNW) 2,761 7.5 -33.4°
Reaches altitude 10° 21:01:00 10° 292° (WNW) 1,863 6.3 -33.8°
Enters shadow 21:02:17 18° 281° (W) 1,442 5.5 -34.0°
